Zurück zum Katalog

CZ-6A DEB

AktivPO
NORAD 61318·DEBRIS·🇨🇳 China

Gestartet Aug 6, 2024 von Taiyuan Satellite Launch Center

Loading…

Nächste Überflüge (nächste 24 Stunden)

TLE

AktuellSource: Space-Track

Epoche: Sep 14, 2026, 00:26 UTC

1 61318U 24140UF  26257.01832846  .00000759  00000-0  33149-3 0  9998
2 61318  89.1145 275.2024 0037721 262.8455  96.8447 14.22556606106049

Verfolge CZ-6A DEB in Echtzeit mit AllMySat

Download on the App Store